Date String (YYYY-MM-DD hh:mm:ss) UTC,Instrument flags,Ambient pressure (hPa),Sample flow (lpm),Bypass flow (lpm),Sample temperature (°C),Ambient temperature (°C),ASC tube jacket temperature (°C),LED temperature (°C),Box temperature (°C),Sample RH (%),Span deviation,Mass concentration (μg/m³),Mass concentration (μg/m³),Mass concentration (μg/m³)
DateTimeUTC,F1_M11,P_M11,Q1_M11,Q2_M11,T1_M11,T2_M11,T3_M11,T4_M11,T5_M11,U1_M11,ZSPAN_M11,X0_M11,X2_M11,X1_M11
2023-02-25 04:00:00,,0826.9,4.97,0.00,21.7,22.0,00.0,30.4,23.6,08.4,0000.0,0007.42,0003.41,0003.19
2023-02-25 04:01:00,,0826.9,5.00,0.00,21.7,21.4,00.0,30.4,23.5,08.4,0000.0,0007.44,0003.52,0003.28
2023-02-25 04:02:00,,0826.9,5.00,0.00,21.7,21.0,00.0,30.4,23.4,08.4,0000.0,0007.40,0003.62,0003.38
2023-02-25 04:03:00,,0826.9,4.99,0.00,21.7,20.7,00.0,30.4,23.3,08.3,0000.0,0007.55,0003.73,0003.47
2023-02-25 04:04:00,,0826.9,5.00,0.00,21.7,20.4,00.0,30.4,23.2,08.4,0000.0,0007.12,0003.83,0003.57
2023-02-25 04:05:00,,0826.9,4.99,0.00,21.6,20.1,00.0,30.4,23.2,08.5,0000.0,0007.35,0003.93,0003.68
2023-02-25 04:06:00,,0826.9,5.01,0.00,21.6,20.0,00.0,30.4,23.2,08.5,0000.0,0007.48,0004.03,0003.76
2023-02-25 04:07:00,,0826.9,5.01,0.00,21.6,19.9,00.0,30.4,23.2,08.5,0000.0,0007.52,0004.11,0003.83
2023-02-25 04:08:00,,0826.8,4.99,0.00,21.6,19.8,00.0,30.4,23.1,08.5,0000.0,0007.62,0004.17,0003.89
2023-02-25 04:09:00,,0827.1,5.00,0.00,21.5,19.7,00.0,30.4,23.1,08.5,0000.0,0008.02,0004.20,0003.93
2023-02-25 04:10:00,,0826.9,5.00,0.00,21.5,19.6,00.0,30.4,23.1,08.5,0000.0,0007.99,0004.18,0003.92
2023-02-25 04:11:00,,0826.9,5.01,0.00,21.5,19.6,00.0,30.3,23.1,08.5,0000.0,0007.97,0004.16,0003.91
2023-02-25 04:12:00,,0826.9,5.01,0.00,21.5,20.8,00.0,30.3,23.3,08.5,0000.0,0007.52,0004.14,0003.89
2023-02-25 04:13:00,,0826.9,4.98,0.00,21.7,22.1,00.0,30.3,23.6,08.5,0000.0,0007.56,0004.15,0003.89
2023-02-25 04:14:00,,0826.9,5.01,0.00,21.8,22.7,00.0,30.4,23.8,08.4,0000.0,0007.62,0004.18,0003.92
2023-02-25 04:15:00,,0826.9,4.95,0.00,21.9,22.2,00.0,30.4,23.8,08.4,0000.0,0007.73,0004.24,0003.95
2023-02-25 04:16:00,,0826.9,5.01,0.00,21.9,21.7,00.0,30.5,23.7,08.2,0000.0,0007.75,0004.24,0003.93
2023-02-25 04:17:00,,0826.9,5.01,0.00,21.9,21.3,00.0,30.5,23.6,08.4,0000.0,0007.67,0004.23,0003.94
2023-02-25 04:18:00,,0827.2,4.99,0.00,21.9,20.9,00.0,30.5,23.6,08.4,0000.0,0007.69,0004.25,0003.96
2023-02-25 04:19:00,,0826.9,5.01,0.00,21.9,20.6,00.0,30.5,23.5,08.4,0000.0,0007.70,0004.26,0003.96
2023-02-25 04:20:00,,0826.9,4.98,0.00,21.8,20.4,00.0,30.5,23.5,08.5,0000.0,0007.47,0004.30,0003.97
2023-02-25 04:21:00,,0827.0,5.01,0.00,21.8,20.3,00.0,30.5,23.4,08.5,0000.0,0007.56,0004.35,0004.00
2023-02-25 04:22:00,,0826.9,5.00,0.00,21.8,20.2,00.0,30.5,23.4,08.5,0000.0,0007.61,0004.40,0004.05
2023-02-25 04:23:00,,0826.9,5.00,0.00,21.8,20.1,00.0,30.5,23.4,08.5,0000.0,0007.66,0004.43,0004.08
2023-02-25 04:24:00,,0827.1,5.00,0.00,21.8,20.0,00.0,30.5,23.3,08.5,0000.0,0007.55,0004.41,0004.08
2023-02-25 04:25:00,,0826.9,4.99,0.00,21.7,19.9,00.0,30.5,23.3,08.5,0000.0,0007.57,0004.41,0004.05
2023-02-25 04:26:00,,0826.8,5.00,0.00,21.7,19.9,00.0,30.5,23.3,08.4,0000.0,0007.58,0004.36,0003.99
2023-02-25 04:27:00,,0826.9,5.01,0.00,21.7,19.9,00.0,30.5,23.3,08.1,0000.0,0007.76,0004.27,0003.92
2023-02-25 04:28:00,,0827.0,5.00,0.00,21.7,19.9,00.0,30.5,23.3,08.0,0000.0,0007.63,0004.13,0003.79
2023-02-25 04:29:00,,0827.1,5.00,0.00,21.7,21.0,00.0,30.4,23.5,08.0,0000.0,0007.45,0003.99,0003.65
2023-02-25 04:30:00,,0826.9,4.97,0.00,21.9,22.3,00.0,30.4,23.9,08.0,0000.0,0007.24,0003.87,0003.53
2023-02-25 04:31:00,,0826.9,5.03,0.00,22.0,22.9,00.0,30.5,24.1,08.0,0000.0,0006.65,0003.71,0003.41
2023-02-25 04:32:00,,0826.9,5.05,0.00,22.1,22.5,00.0,30.6,24.0,07.9,0000.0,0006.22,0003.57,0003.29
2023-02-25 04:33:00,,0827.1,5.02,0.00,22.1,22.0,00.0,30.6,23.9,07.9,0000.0,0005.95,0003.44,0003.16
2023-02-25 04:34:00,,0827.2,5.00,0.00,22.1,21.6,00.0,30.6,23.9,07.8,0000.0,0005.64,0003.29,0002.96
2023-02-25 04:35:00,,0827.0,5.03,0.00,22.1,21.3,00.0,30.7,23.9,07.7,0000.0,0005.28,0003.14,0002.73
2023-02-25 04:36:00,,0826.9,5.01,0.00,22.1,21.1,00.0,30.7,23.8,07.7,0000.0,0004.72,0002.86,0002.50
2023-02-25 04:37:00,,0826.8,5.01,0.00,22.1,20.9,00.0,30.7,23.8,07.7,0000.0,0004.31,0002.61,0002.33
2023-02-25 04:38:00,,0826.8,5.00,0.00,22.1,20.8,00.0,30.7,23.8,07.7,0000.0,0003.60,0002.51,0002.25
2023-02-25 04:39:00,,0826.8,5.02,0.00,22.1,20.6,00.0,30.7,23.7,07.6,0000.0,0003.45,0002.45,0002.21
2023-02-25 04:40:00,,0826.8,4.99,0.00,22.0,20.6,00.0,30.7,23.7,07.7,0000.0,0003.46,0002.41,0002.15
2023-02-25 04:41:00,,0826.8,5.01,0.00,22.0,20.5,00.0,30.7,23.7,07.7,0000.0,0003.35,0002.31,0002.09
2023-02-25 04:42:00,,0827.0,5.00,0.00,22.0,20.3,00.0,30.7,23.6,07.7,0000.0,0003.42,0002.28,0002.05
2023-02-25 04:43:00,,0827.2,4.99,0.00,22.0,20.2,00.0,30.7,23.6,07.7,0000.0,0003.44,0002.24,0002.01
2023-02-25 04:44:00,,0826.9,5.01,0.00,22.0,20.2,00.0,30.7,23.6,07.7,0000.0,0003.49,0002.22,0001.96
2023-02-25 04:45:00,,0826.8,5.02,0.00,22.0,20.2,00.0,30.7,23.6,07.8,0000.0,0003.37,0002.19,0001.94
2023-02-25 04:46:00,,0826.8,5.02,0.00,21.9,20.2,00.0,30.7,23.6,07.9,0000.0,0003.57,0002.26,0001.96
2023-02-25 04:47:00,,0826.8,5.01,0.00,21.9,20.1,00.0,30.7,23.6,07.8,0000.0,0003.58,0002.27,0001.97
2023-02-25 04:48:00,,0826.8,4.99,0.00,21.9,20.1,00.0,30.7,23.5,07.8,0000.0,0003.58,0002.30,0001.97
2023-02-25 04:49:00,,0826.7,4.99,0.00,21.9,20.7,00.0,30.6,23.6,07.9,0000.0,0004.22,0002.34,0002.00
2023-02-25 04:50:00,,0826.7,5.03,0.00,22.0,21.9,00.0,30.6,23.9,08.0,0000.0,0004.84,0002.48,0002.05
2023-02-25 04:51:00,,0826.7,4.94,0.00,22.1,22.7,00.0,30.7,24.1,07.9,0000.0,0004.85,0002.53,0002.09
2023-02-25 04:52:00,,0826.7,5.02,0.00,22.2,22.4,00.0,30.7,24.1,07.9,0000.0,0004.93,0002.60,0002.15
2023-02-25 04:53:00,,0826.7,5.02,0.00,22.2,21.9,00.0,30.7,24.0,07.9,0000.0,0004.87,0002.63,0002.20
2023-02-25 04:54:00,,0826.7,4.99,0.00,22.2,21.5,00.0,30.8,23.9,07.9,0000.0,0004.84,0002.64,0002.24
2023-02-25 04:55:00,,0826.7,5.01,0.00,22.1,21.1,00.0,30.8,23.8,07.9,0000.0,0004.70,0002.63,0002.27
2023-02-25 04:56:00,,0826.7,4.99,0.00,22.1,20.8,00.0,30.8,23.8,07.9,0000.0,0004.69,0002.63,0002.29
2023-02-25 04:57:00,,0826.7,5.01,0.00,22.1,20.6,00.0,30.8,23.7,07.9,0000.0,0005.02,0002.59,0002.26
2023-02-25 04:58:00,,0826.6,5.01,0.00,22.1,20.5,00.0,30.8,23.7,07.8,0000.0,0005.14,0002.59,0002.24
2023-02-25 04:59:00,,0826.7,5.01,0.00,22.0,20.4,00.0,30.8,23.7,07.8,0000.0,0005.18,0002.57,0002.24
